Page, AZ

9:49 PM MDT on October 21, 2017 (GMT -0600)
Page Municipal

Weather History for KPGA - November, 2011

Change the Weather History Date:

Friday, November 4, 2011

  Actual Average Record
Temperature  
Mean Temperature 54 °F -  
Max Temperature 71 °F 59 °F 71 °F (2011)
Min Temperature 37 °F 38 °F 30 °F (1991)
Degree Days  
Heating Degree Days 11    
Growing Degree Days 4 (Base 50)    
Moisture  
Dew Point 26 °F    
Average Humidity 42    
Maximum Humidity 80    
Minimum Humidity 12    
Precipitation  
Precipitation 0.11 in - - ()
Sea Level Pressure  
Sea Level Pressure 29.63 in    
Wind  
Wind Speed 5 mph (SSW)    
Max Wind Speed 20 mph    
Max Gust Speed 31 mph    
Visibility 10 miles    
Events Rain    
Averages and records for this station are not official NWS values.
T = Trace of Precipitation, MM = Missing Value Source: NWS Daily Summary

Daily Weather History Graph

Daily Weather History Graph

Search for Another Location

Airport or City:

Trip Planner

Search our weather history database for the weather conditions in past years. The results will help you decide how hot, cold, wet, or windy it might be!

Date:

Astronomy

Nov. 04, 2011 Rise Set
Actual Time 6:52 AM MST 5:25 PM MST
Civil Twilight 6:25 AM MST 5:52 PM MST
Nautical Twilight 5:54 AM MST 6:23 PM MST
Astronomical Twilight 5:24 AM MST 6:53 PM MST
Moon 2:11 PM MST (11/4) 1:16 AM MST (11/4)
Length of Visible Light 11h 27m
Length of Day
10h 32m
Waxing Gibbous, 70% of the Moon is Illuminated
Nov 4
Waxing Gibbous
Nov 10
Full
Nov 18
Last Quarter
Nov 24
New
Dec 2
First Quarter

Hourly Weather History & Observations

Time (MST) Temp. Windchill Dew Point Humidity Pressure Visibility Wind Dir Wind Speed Gust Speed Precip Events Conditions
12:53 AM 43.0 °F - 23.0 °F 45% 29.88 in 8.0 mi Calm Calm - N/A   Clear
1:53 AM 43.0 °F 41.3 °F 21.9 °F 43% 29.86 in 10.0 mi SW 3.5 mph - N/A   Clear
2:53 AM 41.0 °F - 21.9 °F 47% 29.85 in 10.0 mi Calm Calm - N/A   Clear
3:53 AM 39.0 °F - 25.0 °F 57% 29.81 in 10.0 mi Calm Calm - N/A   Clear
4:53 AM 39.0 °F - 25.0 °F 57% 29.79 in 10.0 mi Calm Calm - N/A   Clear
5:53 AM 37.9 °F - 25.0 °F 60% 29.80 in 10.0 mi Calm Calm - N/A   Clear
6:53 AM 37.9 °F - 23.0 °F 55% 29.80 in 7.0 mi Calm Calm - N/A   Clear
7:53 AM 43.0 °F - 26.1 °F 51% 29.78 in 10.0 mi Calm Calm - N/A   Clear
8:53 AM 48.0 °F - 23.0 °F 37% 29.75 in 10.0 mi Calm Calm - N/A   Clear
9:53 AM 50.0 °F - 27.0 °F 41% 29.72 in 10.0 mi North 4.6 mph - N/A   Clear
10:53 AM 55.0 °F - 28.0 °F 35% 29.66 in 10.0 mi NNW 8.1 mph - N/A   Clear
11:53 AM 63.0 °F - 25.0 °F 24% 29.61 in 10.0 mi SE 8.1 mph - N/A   Clear
12:14 PM 68.0 °F - 19.4 °F 16% 29.68 in 10.0 mi South 19.6 mph 28.8 mph N/A   Clear
12:53 PM 69.1 °F - 19.0 °F 15% 29.54 in 10.0 mi South 16.1 mph 28.8 mph N/A   Clear
1:53 PM 71.1 °F - 17.1 °F 13% 29.47 in 10.0 mi South 16.1 mph 20.7 mph N/A   Clear
2:53 PM 71.1 °F - 16.0 °F 12% 29.44 in 10.0 mi South 17.3 mph 31.1 mph N/A   Clear
3:53 PM 69.1 °F - 19.0 °F 15% 29.44 in 10.0 mi South 18.4 mph 28.8 mph N/A   Clear
4:53 PM 66.0 °F - 23.0 °F 20% 29.45 in 10.0 mi South 18.4 mph 27.6 mph N/A   Clear
5:53 PM 63.0 °F - 25.0 °F 24% 29.48 in 10.0 mi South 15.0 mph 24.2 mph N/A   Scattered Clouds
6:53 PM 61.0 °F - 26.1 °F 26% 29.50 in 10.0 mi South 13.8 mph 23.0 mph N/A   Mostly Cloudy
7:53 PM 57.9 °F - 34.0 °F 41% 29.50 in 10.0 mi WSW 5.8 mph - 0.00 in Rain Light Rain
8:53 PM 51.1 °F - 42.1 °F 71% 29.53 in 10.0 mi SW 8.1 mph - 0.02 in Rain Light Rain
9:53 PM 48.9 °F - 43.0 °F 80% 29.52 in 10.0 mi South 4.6 mph - 0.09 in Rain Light Rain
10:53 PM 48.9 °F - 41.0 °F 74% 29.48 in 10.0 mi Variable 3.5 mph - 0.00 in Rain Light Rain
11:53 PM 48.0 °F - 42.1 °F 80% 29.43 in 10.0 mi SSE 4.6 mph - 0.00 in   Overcast